This demonstration page uses our WeatherBlox Daily Observations layout. Learn more.

Left ArrowRight Arrow

36.17497, -115.13722

Hourly Observations for November 3, 2020

Temp ( °F °C ) Dew Point ( °F °C ) Humidity (%) Winds ( mph kmh ) Pressure ( in mb ) Visibility ( mi km ) Precip ( " mm )
12:53 am 00:53 Clear 67 19.4 34 1.1 30 30 W 7 11 30.03 1017 10 16 0.00 0.00
1:53 am 01:53 Clear 66 18.9 33 0.6 29 29 WNW 5 7 30.02 1017 10 16 0.00 0.00
2:53 am 02:53 Mostly Clear 71 21.7 31 -0.6 23 23 WNW 7 11 30.01 1016 10 16 0.00 0.00
3:53 am 03:53 Clear 66 18.9 33 0.6 29 29 W 3 6 30.01 1016 10 16 0.00 0.00
4:53 am 04:53 Clear 62 16.7 32 0 32 32 NW 6 9 30.03 1017 10 16 0.00 0.00
5:53 am 05:53 Clear 65 18.3 33 0.6 31 31 WNW 9 15 30.03 1017 10 16 0.00 0.00
6:53 am 06:53 Sunny 63 17.2 35 1.7 35 35 W 6 9 30.05 1018 10 16 0.00 0.00
7:53 am 07:53 Sunny 70 21.1 35 1.7 28 28 Calm 30.06 1018 10 16 0.00 0.00
8:53 am 08:53 Sunny 75 23.9 37 2.8 25 25 NW 3 6 30.06 1018 10 16 0.00 0.00
9:53 am 09:53 Sunny 79 26.1 37 2.8 22 22 Calm 30.06 1018 10 16 0.00 0.00
10:53 am 10:53 Sunny 81 27.2 37 2.8 21 21 VRB 3 6 30.04 1017 10 16 0.00 0.00
11:53 am 11:53 Sunny 83 28.3 37 2.8 19 19 SE 9 15 30.01 1016 10 16 0.00 0.00
12:53 pm 12:53 Sunny 84 28.9 37 2.8 19 19 undefined N/A 29.99 1016 10 16 0.00 0.00
1:53 pm 13:53 Sunny 85 29.4 36 2.2 17 17 S 6 9 29.96 1015 10 16 0.00 0.00
2:53 pm 14:53 Sunny 86 30 35 1.7 16 16 Calm 29.96 1014 10 16 0.00 0.00
3:53 pm 15:53 Sunny 86 30 33 0.6 15 15 Calm 29.96 1015 10 16 0.00 0.00
4:53 pm 16:53 Clear 83 28.3 33 0.6 17 17 NW 3 6 29.97 1015 10 16 0.00 0.00
5:53 pm 17:53 Clear 76 24.4 35 1.7 23 23 WNW 6 9 29.99 1016 10 16 0.00 0.00
6:53 pm 18:53 Clear 74 23.3 39 3.9 28 28 W 6 9 30.01 1016 10 16 0.00 0.00
7:53 pm 19:53 Clear 72 22.2 38 3.3 29 29 WNW 5 7 30.02 1017 10 16 0.00 0.00
8:53 pm 20:53 Clear 70 21.1 36 2.2 29 29 NW 8 13 30.03 1017 10 16 0.00 0.00
9:53 pm 21:53 Clear 69 20.6 38 3.3 32 32 W 6 9 30.04 1017 10 16 0.00 0.00
10:53 pm 22:53 Clear 72 22.2 33 0.6 24 24 NW 10 17 30.04 1017 10 16 0.00 0.00
11:53 pm 23:53 Clear 70 21.1 31 -0.6 23 23 WNW 12 19 30.05 1018 10 16 0.00 0.00

Powered by AerisWeather